Погода в Оберштауфене

Германия     47°33′08″N   10°01′24″E
темп.,
°C
ветер,
м/с
пор.,
м/с
влажн.,
%
обл.,
%
осадки,
мм/ч
давл.,
гПа
погр.,
м
11 мая, вт
вт1123:00+11юз019994 0.3 100858
02:00+10ююз119748 0.3 100870
05:00+7юв21922 0.0 100915
08:00+10ссв1185100 0.0 1008152
11:00+14сз2270100 0.0 1006893
14:00+10зсз3497100 0.7 1007413
17:00+7зюз2797100 6.6 10121033
20:00+6ююв2396100 10.9 1012204
12 мая, ср
ср1223:00+6ю2296100 1.2 101377
02:00+6юз2597100 4.6 1013505
05:00+5ююз3798100 6.8 1014827
08:00+4ю2498100 12.1 1015517
11:00+4юз1397100 3.4 1015532
14:00+5ю1197100 4.9 1014524
17:00+6св119384 0.1 1012370
20:00+6св1296100 0.5 1012120
13 мая, чт
чт1323:00+5ююз0197100 1.3 101252
02:00+5ююв1197100 2.7 101170
05:00+5ю129696 0.1 101077
08:00+6ююз2393100 0.3 1010486
11:00+9зюз2574100 0.6 10091125
14:00+9з4574100 1.4 10081299
17:00+5з2698100 1.8 1010657
20:00+5ююз2495100 2.6 1010262
14 мая, пт
пт1423:00+3ююв229284 0.0 101129
02:00+3ю229073 0.0 101117
05:00+5юз1192100 0.2 101029
08:00+6ююз2291100 0.6 1010237
11:00+9зсз237076 0.4 1010920
14:00+12зсз325466 1.1 10081694
17:00+12зсз335385 0.6 10081605
20:00+7зюз1187100 1.8 101010
15 мая, сб
сб1523:00+4ююв219339 0.1 101215
02:00+4ю1193100 0.3 101318
05:00+4ю1191100 0.1 101313
08:00+6з1291100 0.3 1013173
11:00+8зсз128498 0.6 1013789
14:00+12сз225466 0.9 10101406
17:00+11сз2157100 0.1 10091195
20:00+8зсз1184100 0.4 100931